Time,TemperatureF,DewpointF,PressureIn,WindDirection,WindDirectionDegrees,WindSpeedMPH,WindSpeedGustMPH,Humidity,HourlyPrecipIn,Conditions,Clouds,dailyrainin,SoftwareType,DateUTC
2013-11-21 00:04:00,53.8,43.4,29.91,South,180,6.0,8.7,68,-99.99,,,0.00,wxRedirect v1.1,2013-11-21 06:04:00,
2013-11-21 00:09:00,53.8,43.4,29.91,South,180,3.8,8.7,68,-99.99,,,0.00,wxRedirect v1.1,2013-11-21 06:09:00,
2013-11-21 00:14:00,53.8,43.4,29.91,SSE,157,3.1,9.6,68,-99.99,,,0.00,wxRedirect v1.1,2013-11-21 06:14:00,
2013-11-21 00:20:00,53.8,43.4,29.91,SSE,157,6.3,9.6,68,-99.99,,,0.00,wxRedirect v1.1,2013-11-21 06:20:00,
2013-11-21 00:25:00,53.8,43.4,29.91,South,180,7.2,9.6,68,-99.99,,,0.00,wxRedirect v1.1,2013-11-21 06:25:00,
2013-11-21 00:30:00,53.8,43.8,29.91,SSE,157,4.5,7.8,69,-99.99,,,0.00,wxRedirect v1.1,2013-11-21 06:30:00,
2013-11-21 00:36:00,53.6,43.7,29.91,SE,135,3.8,7.6,69,-99.99,,,0.00,wxRedirect v1.1,2013-11-21 06:36:00,
2013-11-21 00:41:00,53.4,43.5,29.91,SSE,157,4.7,7.6,69,-99.99,,,0.00,wxRedirect v1.1,2013-11-21 06:41:00,
2013-11-21 00:46:00,53.4,43.5,29.91,South,180,0.9,9.8,69,-99.99,,,0.00,wxRedirect v1.1,2013-11-21 06:46:00,
2013-11-21 00:52:00,53.4,43.5,29.91,SSE,157,6.9,11.6,69,-99.99,,,0.00,wxRedirect v1.1,2013-11-21 06:52:00,
2013-11-21 00:57:00,53.4,43.5,29.91,SSE,157,3.4,11.6,69,-99.99,,,0.00,wxRedirect v1.1,2013-11-21 06:57:00,
2013-11-21 01:02:00,53.4,43.9,29.91,SSE,157,4.5,11.2,70,-99.99,,,0.00,wxRedirect v1.1,2013-11-21 07:02:00,
2013-11-21 01:08:00,53.2,43.7,29.91,South,180,4.9,10.7,70,-99.99,,,0.00,wxRedirect v1.1,2013-11-21 07:08:00,
2013-11-21 01:13:00,53.2,43.7,29.91,SSE,157,3.1,8.5,70,-99.99,,,0.00,wxRedirect v1.1,2013-11-21 07:13:00,
2013-11-21 01:18:00,53.2,43.7,29.91,South,180,0.0,7.8,70,-99.99,,,0.00,wxRedirect v1.1,2013-11-21 07:18:00,
2013-11-21 01:24:00,53.2,43.7,29.91,South,180,0.0,7.8,70,-99.99,,,0.00,wxRedirect v1.1,2013-11-21 07:24:00,
2013-11-21 01:29:00,53.2,43.7,29.91,South,180,3.1,3.1,70,-99.99,,,0.00,wxRedirect v1.1,2013-11-21 07:29:00,
2013-11-21 01:34:00,53.2,43.7,29.91,SSE,157,1.8,6.0,70,-99.99,,,0.00,wxRedirect v1.1,2013-11-21 07:34:00,
2013-11-21 01:40:00,53.2,44.1,29.91,SE,135,3.4,7.6,71,-99.99,,,0.00,wxRedirect v1.1,2013-11-21 07:40:00,
2013-11-21 01:45:00,53.1,44.3,29.91,South,180,0.0,7.6,72,-99.99,,,0.00,wxRedirect v1.1,2013-11-21 07:45:00,
2013-11-21 01:50:00,52.9,44.5,29.91,SSE,157,1.3,5.1,73,-99.99,,,0.00,wxRedirect v1.1,2013-11-21 07:50:00,
2013-11-21 01:56:00,52.9,44.5,29.90,SE,135,3.4,7.8,73,-99.99,,,0.00,wxRedirect v1.1,2013-11-21 07:56:00,
2013-11-21 02:01:00,52.7,44.7,29.91,SSE,157,0.0,7.8,74,-99.99,,,0.00,wxRedirect v1.1,2013-11-21 08:01:00,
2013-11-21 02:06:00,52.5,44.8,29.91,SSE,157,4.3,4.9,75,-99.99,,,0.00,wxRedirect v1.1,2013-11-21 08:06:00,
2013-11-21 02:12:00,52.3,44.7,29.91,SSE,157,2.9,4.9,75,-99.99,,,0.00,wxRedirect v1.1,2013-11-21 08:12:00,
2013-11-21 02:17:00,52.3,44.7,29.91,SSE,157,0.7,4.9,75,-99.99,,,0.00,wxRedirect v1.1,2013-11-21 08:17:00,
2013-11-21 02:22:00,52.2,44.5,29.92,SSE,157,3.1,4.7,75,-99.99,,,0.00,wxRedirect v1.1,2013-11-21 08:22:00,
2013-11-21 02:28:00,52.2,44.8,29.93,SE,135,2.9,4.7,76,-99.99,,,0.00,wxRedirect v1.1,2013-11-21 08:28:00,
2013-11-21 02:33:00,52.2,44.8,29.93,SSE,157,6.5,9.4,76,-99.99,,,0.00,wxRedirect v1.1,2013-11-21 08:33:00,
2013-11-21 02:38:00,52.0,44.7,29.93,SSE,157,5.4,9.4,76,-99.99,,,0.00,wxRedirect v1.1,2013-11-21 08:38:00,
2013-11-21 02:44:00,52.0,44.7,29.93,SSE,157,0.0,9.8,76,-99.99,,,0.00,wxRedirect v1.1,2013-11-21 08:44:00,
2013-11-21 02:49:00,52.0,44.7,29.94,South,180,3.6,8.7,76,-99.99,,,0.00,wxRedirect v1.1,2013-11-21 08:49:00,
2013-11-21 02:54:00,52.2,45.0,29.94,SSW,202,9.2,9.4,77,-99.99,,,0.00,wxRedirect v1.1,2013-11-21 08:54:00,
2013-11-21 03:00:00,52.3,45.4,29.94,North,-999,-999.0,-999.0,77,-99.99,,,0.00,wxRedirect v1.1,2013-11-21 09:00:00,
2013-11-21 03:05:00,52.2,45.5,29.94,SSE,157,6.7,13.0,78,0.02,,,0.02,wxRedirect v1.1,2013-11-21 09:05:00,
2013-11-21 03:10:00,52.2,45.9,29.94,South,180,6.0,13.0,79,0.04,,,0.04,wxRedirect v1.1,2013-11-21 09:10:00,
2013-11-21 03:16:00,52.2,46.2,29.94,SSW,202,4.0,9.6,80,0.06,,,0.06,wxRedirect v1.1,2013-11-21 09:16:00,
2013-11-21 03:21:00,52.2,46.5,29.94,SSE,157,4.0,11.9,81,0.08,,,0.08,wxRedirect v1.1,2013-11-21 09:21:00,
2013-11-21 03:26:00,52.2,46.8,29.94,SSW,202,12.3,12.3,82,0.10,,,0.10,wxRedirect v1.1,2013-11-21 09:26:00,
2013-11-21 03:32:00,52.3,47.0,29.94,SSE,157,8.7,14.8,82,0.12,,,0.12,wxRedirect v1.1,2013-11-21 09:32:00,
2013-11-21 03:37:00,52.3,47.3,29.94,SW,225,1.8,14.8,83,0.12,,,0.12,wxRedirect v1.1,2013-11-21 09:37:00,
2013-11-21 03:42:00,52.5,47.5,29.93,South,180,6.5,11.2,83,0.16,,,0.16,wxRedirect v1.1,2013-11-21 09:42:00,
2013-11-21 03:48:00,52.7,48.0,29.93,South,180,2.0,9.6,84,0.18,,,0.18,wxRedirect v1.1,2013-11-21 09:48:00,
2013-11-21 03:53:00,52.9,48.2,29.93,SSE,157,3.8,10.1,84,0.20,,,0.20,wxRedirect v1.1,2013-11-21 09:53:00,
2013-11-21 03:58:00,52.9,48.2,29.91,SSE,157,0.0,10.1,84,0.20,,,0.20,wxRedirect v1.1,2013-11-21 09:58:00,
2013-11-21 04:04:00,53.1,48.3,29.92,SSE,157,0.0,6.0,84,0.16,,,0.20,wxRedirect v1.1,2013-11-21 10:04:00,
2013-11-21 04:09:00,53.2,48.5,29.90,SSE,157,0.0,3.4,84,0.14,,,0.20,wxRedirect v1.1,2013-11-21 10:09:00,
2013-11-21 04:14:00,53.2,48.5,29.90,SSE,157,0.0,3.4,84,0.14,,,0.20,wxRedirect v1.1,2013-11-21 10:14:00,
2013-11-21 04:20:00,53.2,48.5,29.89,SSE,157,0.0,0.0,84,0.10,,,0.20,wxRedirect v1.1,2013-11-21 10:20:00,
2013-11-21 04:25:00,53.2,48.5,29.90,SSE,157,0.0,0.0,84,0.10,,,0.20,wxRedirect v1.1,2013-11-21 10:25:00,
2013-11-21 04:30:00,53.2,48.2,29.90,SSE,157,0.0,0.0,83,0.08,,,0.20,wxRedirect v1.1,2013-11-21 10:30:00,
2013-11-21 04:36:00,53.2,48.5,29.90,SSE,157,2.7,2.7,84,0.06,,,0.20,wxRedirect v1.1,2013-11-21 10:36:00,
2013-11-21 04:41:00,53.2,48.5,29.91,South,180,5.8,5.8,84,0.04,,,0.20,wxRedirect v1.1,2013-11-21 10:41:00,
2013-11-21 04:46:00,53.2,48.5,29.91,SSE,157,3.8,5.8,84,0.02,,,0.20,wxRedirect v1.1,2013-11-21 10:46:00,
2013-11-21 04:52:00,53.1,48.7,29.91,SSE,157,3.8,7.8,85,0.00,,,0.20,wxRedirect v1.1,2013-11-21 10:52:00,
2013-11-21 04:57:00,52.9,48.5,29.91,South,180,4.0,10.5,85,0.00,,,0.20,wxRedirect v1.1,2013-11-21 10:57:00,
2013-11-21 05:02:00,52.9,48.5,29.91,SSE,157,3.6,10.5,85,0.00,,,0.20,wxRedirect v1.1,2013-11-21 11:02:00,
2013-11-21 05:08:00,52.9,48.5,29.91,SSE,157,1.3,5.1,85,0.00,,,0.20,wxRedirect v1.1,2013-11-21 11:08:00,
2013-11-21 05:13:00,52.7,48.3,29.92,SSE,157,1.8,9.8,85,0.00,,,0.20,wxRedirect v1.1,2013-11-21 11:13:00,
2013-11-21 05:18:00,52.7,48.3,29.92,SSE,157,1.8,7.8,85,0.00,,,0.20,wxRedirect v1.1,2013-11-21 11:18:00,
2013-11-21 05:24:00,52.5,48.1,29.91,SSE,157,0.0,8.1,85,0.00,,,0.20,wxRedirect v1.1,2013-11-21 11:24:00,
2013-11-21 05:29:00,52.5,48.1,29.92,SE,135,3.8,8.1,85,0.00,,,0.20,wxRedirect v1.1,2013-11-21 11:29:00,
2013-11-21 05:34:00,52.5,48.1,29.93,SSE,157,0.0,6.7,85,0.00,,,0.20,wxRedirect v1.1,2013-11-21 11:34:00,
2013-11-21 05:40:00,52.5,48.1,29.96,NNW,337,9.4,11.0,85,0.00,,,0.20,wxRedirect v1.1,2013-11-21 11:40:00,
2013-11-21 05:45:00,52.5,48.1,29.96,NW,315,1.3,11.9,85,0.00,,,0.20,wxRedirect v1.1,2013-11-21 11:45:00,
2013-11-21 05:50:00,52.5,48.1,29.96,NNW,337,6.7,12.5,87,0.00,,,0.20,wxRedirect v1.1,2013-11-21 11:50:00,
2013-11-21 05:56:00,52.3,47.6,29.96,NNW,337,2.9,12.5,84,0.00,,,0.20,wxRedirect v1.1,2013-11-21 11:56:00,
2013-11-21 06:01:00,52.3,47.6,29.96,NNW,337,3.6,9.4,84,0.00,,,0.20,wxRedirect v1.1,2013-11-21 12:01:00,
2013-11-21 06:06:00,52.3,47.6,29.97,North,0,5.4,8.3,84,0.00,,,0.20,wxRedirect v1.1,2013-11-21 12:06:00,
2013-11-21 06:12:00,52.3,47.6,29.97,North,0,4.0,9.4,84,0.00,,,0.20,wxRedirect v1.1,2013-11-21 12:12:00,
2013-11-21 06:17:00,52.5,47.8,29.97,NNE,22,3.6,9.4,84,0.00,,,0.20,wxRedirect v1.1,2013-11-21 12:17:00,
2013-11-21 06:22:00,52.5,47.8,29.98,NNE,22,2.5,4.5,84,0.00,,,0.20,wxRedirect v1.1,2013-11-21 12:22:00,
2013-11-21 06:28:00,52.5,47.8,29.98,NNE,22,1.6,6.7,84,0.00,,,0.20,wxRedirect v1.1,2013-11-21 12:28:00,
2013-11-21 06:33:00,52.5,47.5,29.98,NNE,22,4.7,6.7,83,0.00,,,0.20,wxRedirect v1.1,2013-11-21 12:33:00,
2013-11-21 06:38:00,52.5,47.5,29.99,North,0,5.8,7.8,83,0.00,,,0.20,wxRedirect v1.1,2013-11-21 12:38:00,
2013-11-21 06:44:00,52.5,47.5,29.99,North,0,11.2,11.2,83,0.00,,,0.20,wxRedirect v1.1,2013-11-21 12:44:00,
2013-11-21 06:49:00,52.3,47.3,29.99,North,0,6.5,17.0,83,0.00,,,0.20,wxRedirect v1.1,2013-11-21 12:49:00,
2013-11-21 06:54:00,52.3,47.3,29.98,North,0,7.4,9.2,83,0.00,,,0.20,wxRedirect v1.1,2013-11-21 12:54:00,
2013-11-21 07:00:00,52.2,46.8,29.99,North,0,9.8,13.9,82,0.00,,,0.20,wxRedirect v1.1,2013-11-21 13:00:00,
2013-11-21 07:05:00,51.6,45.7,30.00,NNW,337,13.0,21.0,80,0.00,,,0.20,wxRedirect v1.1,2013-11-21 13:05:00,
2013-11-21 07:10:00,50.5,43.9,30.01,NNW,337,9.6,21.0,78,0.00,,,0.20,wxRedirect v1.1,2013-11-21 13:10:00,
2013-11-21 07:16:00,49.3,42.0,30.01,NNW,337,13.0,25.1,76,0.00,,,0.20,wxRedirect v1.1,2013-11-21 13:16:00,
2013-11-21 07:21:00,48.4,40.7,30.01,North,0,9.6,25.1,75,0.00,,,0.20,wxRedirect v1.1,2013-11-21 13:21:00,
2013-11-21 07:26:00,47.5,40.2,30.01,North,0,8.1,22.4,75,0.00,,,0.20,wxRedirect v1.1,2013-11-21 13:26:00,
2013-11-21 07:31:00,46.9,39.4,30.02,NNE,22,10.5,22.4,75,0.00,,,0.20,wxRedirect v1.1,2013-11-21 13:31:00,
2013-11-21 07:37:00,46.4,39.3,30.02,North,0,11.0,15.0,76,0.00,,,0.20,wxRedirect v1.1,2013-11-21 13:37:00,
2013-11-21 07:42:00,46.2,39.1,30.04,NNE,22,15.0,18.6,76,0.00,,,0.20,wxRedirect v1.1,2013-11-21 13:42:00,
2013-11-21 07:47:00,45.7,38.6,30.04,North,0,14.5,18.6,76,0.00,,,0.20,wxRedirect v1.1,2013-11-21 13:47:00,
2013-11-21 07:53:00,45.1,38.0,30.04,NNW,337,10.5,18.1,76,0.00,,,0.20,wxRedirect v1.1,2013-11-21 13:53:00,
2013-11-21 07:58:00,44.8,37.7,30.04,NNE,22,16.1,22.4,76,0.00,,,0.20,wxRedirect v1.1,2013-11-21 13:58:00,
2013-11-21 08:03:00,44.2,37.1,30.05,NE,45,9.6,22.4,76,0.00,,,0.20,wxRedirect v1.1,2013-11-21 14:03:00,
2013-11-21 08:09:00,43.5,36.1,30.05,NNE,22,12.3,24.2,75,0.00,,,0.20,wxRedirect v1.1,2013-11-21 14:09:00,
2013-11-21 08:14:00,43.0,35.9,30.05,NNW,337,11.0,24.2,76,0.00,,,0.20,wxRedirect v1.1,2013-11-21 14:14:00,
2013-11-21 08:19:00,42.4,35.4,30.06,NNE,22,15.4,19.0,76,0.00,,,0.20,wxRedirect v1.1,2013-11-21 14:19:00,
2013-11-21 08:25:00,42.1,35.0,30.06,NNE,22,2.9,19.0,76,0.00,,,0.20,wxRedirect v1.1,2013-11-21 14:25:00,
2013-11-21 08:30:00,41.7,34.7,30.07,NW,315,6.3,17.9,76,0.00,,,0.20,wxRedirect v1.1,2013-11-21 14:30:00,
2013-11-21 08:35:00,41.5,34.8,30.07,North,0,3.8,17.7,77,0.00,,,0.20,wxRedirect v1.1,2013-11-21 14:35:00,
2013-11-21 08:41:00,41.4,34.3,30.07,NNE,22,4.9,22.8,76,0.00,,,0.20,wxRedirect v1.1,2013-11-21 14:41:00,
2013-11-21 08:46:00,41.2,34.1,30.08,NNW,337,12.5,22.8,76,0.00,,,0.20,wxRedirect v1.1,2013-11-21 14:46:00,
2013-11-21 08:51:00,40.8,33.8,30.09,North,0,11.0,16.1,76,0.00,,,0.20,wxRedirect v1.1,2013-11-21 14:51:00,
2013-11-21 08:57:00,40.6,33.6,30.08,NNE,22,3.4,17.4,76,0.00,,,0.20,wxRedirect v1.1,2013-11-21 14:57:00,
2013-11-21 09:02:00,40.3,33.3,30.08,North,0,9.4,18.1,76,0.00,,,0.20,wxRedirect v1.1,2013-11-21 15:02:00,
2013-11-21 09:07:00,40.1,33.4,30.09,North,0,4.3,18.1,77,0.00,,,0.20,wxRedirect v1.1,2013-11-21 15:07:00,
2013-11-21 09:13:00,39.9,33.3,30.09,North,0,9.2,17.2,77,0.00,,,0.20,wxRedirect v1.1,2013-11-21 15:13:00,
2013-11-21 09:18:00,39.7,33.1,30.09,NNE,22,13.9,17.2,77,0.00,,,0.20,wxRedirect v1.1,2013-11-21 15:18:00,
2013-11-21 09:23:00,39.6,32.9,30.09,North,0,11.9,17.2,77,0.00,,,0.20,wxRedirect v1.1,2013-11-21 15:23:00,
2013-11-21 09:29:00,39.4,32.8,30.09,North,0,5.4,16.3,77,0.00,,,0.20,wxRedirect v1.1,2013-11-21 15:29:00,
2013-11-21 09:34:00,39.4,33.1,30.10,NNE,22,11.2,16.3,78,0.00,,,0.20,wxRedirect v1.1,2013-11-21 15:34:00,
2013-11-21 09:39:00,39.2,32.9,30.11,NNE,22,18.8,18.8,78,0.00,,,0.20,wxRedirect v1.1,2013-11-21 15:39:00,
2013-11-21 09:45:00,39.0,32.8,30.11,NNW,337,15.7,18.8,78,0.00,,,0.20,wxRedirect v1.1,2013-11-21 15:45:00,
2013-11-21 09:50:00,39.0,32.4,30.11,North,0,13.6,20.8,77,0.00,,,0.20,wxRedirect v1.1,2013-11-21 15:50:00,
2013-11-21 09:55:00,38.8,32.2,30.12,North,0,17.7,17.7,77,0.00,,,0.20,wxRedirect v1.1,2013-11-21 15:55:00,
2013-11-21 10:01:00,38.8,32.6,30.12,North,0,13.9,19.2,78,0.00,,,0.20,wxRedirect v1.1,2013-11-21 16:01:00,
2013-11-21 10:06:00,38.8,32.6,30.12,NE,45,14.8,19.2,78,0.00,,,0.20,wxRedirect v1.1,2013-11-21 16:06:00,
2013-11-21 10:11:00,38.5,31.9,30.13,NNW,337,7.6,20.6,77,0.00,,,0.20,wxRedirect v1.1,2013-11-21 16:11:00,
2013-11-21 10:17:00,38.5,31.9,30.12,North,0,19.2,19.2,77,0.00,,,0.20,wxRedirect v1.1,2013-11-21 16:17:00,
2013-11-21 10:22:00,38.3,32.1,30.12,North,0,5.8,23.0,78,0.00,,,0.20,wxRedirect v1.1,2013-11-21 16:22:00,
2013-11-21 10:27:00,38.1,31.5,30.13,North,0,8.1,23.0,77,0.00,,,0.20,wxRedirect v1.1,2013-11-21 16:27:00,
2013-11-21 10:33:00,37.9,31.4,30.13,NNE,22,16.8,20.6,77,0.00,,,0.20,wxRedirect v1.1,2013-11-21 16:33:00,
2013-11-21 10:38:00,37.9,31.4,30.13,NNE,22,10.5,16.8,77,0.00,,,0.20,wxRedirect v1.1,2013-11-21 16:38:00,
2013-11-21 10:43:00,37.8,31.5,30.14,NNW,337,3.4,14.1,78,0.00,,,0.20,wxRedirect v1.1,2013-11-21 16:43:00,
2013-11-21 10:49:00,37.8,31.5,30.14,North,0,13.2,18.6,78,0.00,,,0.20,wxRedirect v1.1,2013-11-21 16:49:00,
2013-11-21 10:54:00,37.6,31.3,30.14,North,0,11.0,23.7,78,0.00,,,0.20,wxRedirect v1.1,2013-11-21 16:54:00,
2013-11-21 10:59:00,37.6,31.3,30.13,North,0,8.1,20.4,78,0.00,,,0.20,wxRedirect v1.1,2013-11-21 16:59:00,
2013-11-21 11:05:00,37.4,31.2,30.14,North,0,17.0,20.6,78,0.00,,,0.20,wxRedirect v1.1,2013-11-21 17:05:00,
2013-11-21 11:10:00,37.4,31.2,30.14,North,0,8.1,20.6,78,0.00,,,0.20,wxRedirect v1.1,2013-11-21 17:10:00,
2013-11-21 11:15:00,37.2,31.0,30.13,North,0,17.9,23.9,78,0.00,,,0.20,wxRedirect v1.1,2013-11-21 17:15:00,
2013-11-21 11:20:00,37.2,31.0,30.14,North,0,11.0,23.9,78,0.00,,,0.20,wxRedirect v1.1,2013-11-21 17:20:00,
2013-11-21 11:26:00,37.0,30.8,30.14,North,0,6.9,18.6,78,0.00,,,0.20,wxRedirect v1.1,2013-11-21 17:26:00,
2013-11-21 11:31:00,37.0,30.8,30.14,NNE,22,15.9,21.0,78,0.00,,,0.20,wxRedirect v1.1,2013-11-21 17:31:00,
2013-11-21 11:36:00,36.9,30.6,30.14,North,0,15.4,21.0,78,0.00,,,0.20,wxRedirect v1.1,2013-11-21 17:36:00,
2013-11-21 11:42:00,36.7,30.5,30.14,NNE,22,7.8,19.7,78,0.00,,,0.20,wxRedirect v1.1,2013-11-21 17:42:00,
2013-11-21 11:47:00,36.5,30.3,30.15,NNE,22,9.6,19.7,78,0.00,,,0.20,wxRedirect v1.1,2013-11-21 17:47:00,
2013-11-21 11:53:00,36.3,30.1,30.14,North,0,19.9,19.9,78,0.08,,,0.20,wxRedirect v1.1,2013-11-21 17:53:00,
2013-11-21 11:58:00,36.3,30.1,30.14,NE,45,11.9,24.4,78,0.00,,,0.20,wxRedirect v1.1,2013-11-21 17:58:00,
2013-11-21 12:03:00,36.1,29.9,30.14,NW,315,8.3,24.4,78,0.00,,,0.20,wxRedirect v1.1,2013-11-21 18:03:00,
2013-11-21 12:09:00,36.1,29.9,30.14,North,0,19.9,20.1,78,0.00,,,0.20,wxRedirect v1.1,2013-11-21 18:09:00,
2013-11-21 12:14:00,35.8,29.6,30.14,NNW,337,8.3,20.1,78,0.00,,,0.20,wxRedirect v1.1,2013-11-21 18:14:00,
2013-11-21 12:19:00,35.8,29.6,30.15,NNE,22,22.6,22.6,78,0.00,,,0.20,wxRedirect v1.1,2013-11-21 18:19:00,
2013-11-21 12:25:00,35.4,29.2,30.15,NE,45,5.8,22.6,78,0.00,,,0.20,wxRedirect v1.1,2013-11-21 18:25:00,
2013-11-21 12:30:00,35.4,29.2,30.16,North,0,2.5,25.3,78,0.00,,,0.20,wxRedirect v1.1,2013-11-21 18:30:00,
2013-11-21 12:35:00,35.4,29.2,30.15,NNE,22,12.5,25.3,78,0.00,,,0.20,wxRedirect v1.1,2013-11-21 18:35:00,
2013-11-21 12:41:00,35.2,29.0,30.15,North,0,16.6,22.6,78,0.00,,,0.20,wxRedirect v1.1,2013-11-21 18:41:00,
2013-11-21 12:46:00,35.2,29.0,30.15,NNW,337,8.1,21.3,78,0.00,,,0.20,wxRedirect v1.1,2013-11-21 18:46:00,
2013-11-21 12:51:00,35.2,29.0,30.15,NNW,337,5.1,21.3,78,0.00,,,0.20,wxRedirect v1.1,2013-11-21 18:51:00,
2013-11-21 12:57:00,35.2,29.0,30.15,North,0,14.5,19.5,78,0.00,,,0.20,wxRedirect v1.1,2013-11-21 18:57:00,
2013-11-21 13:02:00,34.9,28.7,30.15,North,0,12.1,16.3,78,0.00,,,0.20,wxRedirect v1.1,2013-11-21 19:02:00,
2013-11-21 13:07:00,34.7,28.5,30.16,NW,315,13.2,21.0,78,0.00,,,0.20,wxRedirect v1.1,2013-11-21 19:07:00,
2013-11-21 13:13:00,34.5,28.3,30.17,NNW,337,10.3,15.7,78,0.00,,,0.20,wxRedirect v1.1,2013-11-21 19:13:00,
2013-11-21 13:18:00,34.3,28.1,30.16,North,0,10.5,22.6,78,0.00,,,0.20,wxRedirect v1.1,2013-11-21 19:18:00,
2013-11-21 13:23:00,34.3,28.1,30.16,NW,315,14.8,24.8,78,0.00,,,0.20,wxRedirect v1.1,2013-11-21 19:23:00,
2013-11-21 13:29:00,34.0,28.1,30.16,NNW,337,6.9,24.8,79,0.00,,,0.20,wxRedirect v1.1,2013-11-21 19:29:00,
2013-11-21 13:34:00,33.8,27.9,30.16,North,0,12.1,21.7,79,0.00,,,0.20,wxRedirect v1.1,2013-11-21 19:34:00,
2013-11-21 13:39:00,33.6,27.7,30.17,North,0,27.7,27.7,79,0.00,,,0.20,wxRedirect v1.1,2013-11-21 19:39:00,
2013-11-21 13:45:00,33.4,27.6,30.17,NNW,337,4.0,27.7,79,0.00,,,0.20,wxRedirect v1.1,2013-11-21 19:45:00,
2013-11-21 13:50:00,33.4,27.6,30.17,NNW,337,5.8,24.4,79,0.00,,,0.20,wxRedirect v1.1,2013-11-21 19:50:00,
2013-11-21 13:55:00,33.3,27.4,30.17,North,0,11.9,24.4,79,0.00,,,0.20,wxRedirect v1.1,2013-11-21 19:55:00,
2013-11-21 14:01:00,33.1,27.2,30.17,NNE,22,11.4,24.8,79,0.00,,,0.20,wxRedirect v1.1,2013-11-21 20:01:00,
2013-11-21 14:06:00,32.7,26.9,30.17,NNW,337,10.5,24.8,79,0.00,,,0.20,wxRedirect v1.1,2013-11-21 20:06:00,
2013-11-21 14:11:00,32.7,26.9,30.18,NNW,337,8.1,21.3,79,0.00,,,0.20,wxRedirect v1.1,2013-11-21 20:11:00,
2013-11-21 14:17:00,32.7,26.9,30.18,NNW,337,9.8,20.4,79,0.00,,,0.20,wxRedirect v1.1,2013-11-21 20:17:00,
2013-11-21 14:22:00,32.5,26.8,30.18,North,0,10.3,20.6,79,0.00,,,0.20,wxRedirect v1.1,2013-11-21 20:22:00,
2013-11-21 14:27:00,32.5,26.8,30.18,NNW,337,8.9,27.5,79,0.00,,,0.20,wxRedirect v1.1,2013-11-21 20:27:00,
2013-11-21 14:33:00,32.5,26.8,30.18,NNW,337,6.7,27.5,79,0.00,,,0.20,wxRedirect v1.1,2013-11-21 20:33:00,
2013-11-21 14:38:00,32.5,26.8,30.18,North,0,9.4,20.8,79,0.00,,,0.20,wxRedirect v1.1,2013-11-21 20:38:00,
2013-11-21 14:43:00,32.4,26.6,30.19,NNW,337,13.2,20.1,79,0.00,,,0.20,wxRedirect v1.1,2013-11-21 20:43:00,
2013-11-21 14:49:00,32.2,26.4,30.19,NNW,337,12.5,22.4,79,0.00,,,0.20,wxRedirect v1.1,2013-11-21 20:49:00,
2013-11-21 14:54:00,32.2,26.4,30.19,NNW,337,12.3,22.4,79,0.00,,,0.20,wxRedirect v1.1,2013-11-21 20:54:00,
2013-11-21 14:59:00,31.8,26.1,30.19,North,0,6.5,17.4,79,0.00,,,0.20,wxRedirect v1.1,2013-11-21 20:59:00,
2013-11-21 15:05:00,31.8,26.1,30.19,NNE,22,17.9,21.0,79,0.00,,,0.20,wxRedirect v1.1,2013-11-21 21:05:00,
2013-11-21 15:10:00,31.6,25.9,30.19,North,0,19.2,21.0,79,0.00,,,0.20,wxRedirect v1.1,2013-11-21 21:10:00,
2013-11-21 15:15:00,31.6,25.6,30.20,NNW,337,12.5,26.4,78,0.00,,,0.20,wxRedirect v1.1,2013-11-21 21:15:00,
2013-11-21 15:21:00,31.5,25.4,30.21,NNW,337,10.7,26.4,78,0.00,,,0.20,wxRedirect v1.1,2013-11-21 21:21:00,
2013-11-21 15:26:00,31.3,25.6,30.21,NNW,337,13.4,19.5,79,0.00,,,0.20,wxRedirect v1.1,2013-11-21 21:26:00,
2013-11-21 15:31:00,31.3,25.6,30.21,North,0,19.0,23.0,79,0.00,,,0.20,wxRedirect v1.1,2013-11-21 21:31:00,
2013-11-21 15:37:00,31.3,25.6,30.22,North,0,6.5,20.8,79,0.00,,,0.20,wxRedirect v1.1,2013-11-21 21:37:00,
2013-11-21 15:42:00,31.3,25.6,30.22,NNE,22,10.7,22.1,79,0.00,,,0.20,wxRedirect v1.1,2013-11-21 21:42:00,
2013-11-21 15:47:00,31.5,25.7,30.23,North,0,10.1,22.1,79,0.00,,,0.20,wxRedirect v1.1,2013-11-21 21:47:00,
2013-11-21 15:53:00,31.6,25.9,30.24,NNW,337,10.3,19.5,79,0.00,,,0.20,wxRedirect v1.1,2013-11-21 21:53:00,
2013-11-21 15:58:00,31.6,25.9,30.23,North,0,11.9,19.5,79,0.00,,,0.20,wxRedirect v1.1,2013-11-21 21:58:00,
2013-11-21 16:03:00,31.8,26.1,30.24,NNW,337,13.2,14.8,79,0.00,,,0.20,wxRedirect v1.1,2013-11-21 22:03:00,
2013-11-21 16:09:00,31.6,25.9,30.24,NNW,337,17.9,17.9,79,0.00,,,0.20,wxRedirect v1.1,2013-11-21 22:09:00,
2013-11-21 16:14:00,31.5,25.7,30.24,North,0,19.9,19.9,79,0.00,,,0.20,wxRedirect v1.1,2013-11-21 22:14:00,
2013-11-21 16:19:00,31.3,25.6,30.25,NNW,337,9.4,19.9,79,0.00,,,0.20,wxRedirect v1.1,2013-11-21 22:19:00,
2013-11-21 16:25:00,31.3,25.6,30.26,NNW,337,10.5,20.8,79,0.00,,,0.20,wxRedirect v1.1,2013-11-21 22:25:00,
2013-11-21 16:30:00,31.1,25.4,30.26,NNW,337,22.1,27.7,79,0.00,,,0.20,wxRedirect v1.1,2013-11-21 22:30:00,
2013-11-21 16:35:00,31.1,25.4,30.27,NNW,337,18.3,27.7,79,0.00,,,0.20,wxRedirect v1.1,2013-11-21 22:35:00,
2013-11-21 16:41:00,30.9,25.2,30.27,NE,45,7.4,21.9,79,0.00,,,0.20,wxRedirect v1.1,2013-11-21 22:41:00,
2013-11-21 16:46:00,30.9,25.2,30.27,NNW,337,11.4,28.2,79,0.00,,,0.20,wxRedirect v1.1,2013-11-21 22:46:00,
2013-11-21 16:51:00,30.7,25.0,30.28,North,0,10.3,28.2,79,0.00,,,0.20,wxRedirect v1.1,2013-11-21 22:51:00,
2013-11-21 16:57:00,30.7,25.0,30.28,NNW,337,13.9,22.6,79,0.00,,,0.20,wxRedirect v1.1,2013-11-21 22:57:00,
2013-11-21 17:02:00,30.6,24.8,30.27,NNW,337,20.8,22.6,79,0.00,,,0.20,wxRedirect v1.1,2013-11-21 23:02:00,
2013-11-21 17:07:00,30.6,24.8,30.27,NNW,337,15.0,21.3,79,0.00,,,0.20,wxRedirect v1.1,2013-11-21 23:07:00,
2013-11-21 17:13:00,30.4,24.7,30.28,North,0,17.2,21.9,79,0.00,,,0.20,wxRedirect v1.1,2013-11-21 23:13:00,
2013-11-21 17:18:00,30.4,24.7,30.28,NNW,337,13.2,21.9,79,0.00,,,0.20,wxRedirect v1.1,2013-11-21 23:18:00,
2013-11-21 17:23:00,30.2,24.5,30.28,NNW,337,17.7,21.3,79,0.00,,,0.20,wxRedirect v1.1,2013-11-21 23:23:00,
2013-11-21 17:29:00,30.0,24.3,30.29,North,0,4.7,18.8,79,0.00,,,0.20,wxRedirect v1.1,2013-11-21 23:29:00,
2013-11-21 17:34:00,30.0,24.0,30.29,North,0,10.1,22.4,78,0.00,,,0.20,wxRedirect v1.1,2013-11-21 23:34:00,
2013-11-21 17:39:00,30.0,24.0,30.30,North,0,22.4,22.4,78,0.00,,,0.20,wxRedirect v1.1,2013-11-21 23:39:00,
2013-11-21 17:45:00,30.0,24.0,30.30,NNW,337,15.0,22.4,78,0.00,,,0.20,wxRedirect v1.1,2013-11-21 23:45:00,
2013-11-21 17:50:00,29.8,23.8,30.31,NNW,337,5.8,17.7,78,0.00,,,0.20,wxRedirect v1.1,2013-11-21 23:50:00,
2013-11-21 17:55:00,29.7,23.6,30.31,North,0,14.3,19.9,78,0.00,,,0.20,wxRedirect v1.1,2013-11-21 23:55:00,
2013-11-21 18:01:00,29.7,23.6,30.32,North,0,26.8,26.8,78,0.00,,,0.20,wxRedirect v1.1,2013-11-22 00:01:00,
2013-11-21 18:06:00,29.5,23.4,30.32,NNW,337,12.3,26.8,78,0.00,,,0.20,wxRedirect v1.1,2013-11-22 00:06:00,
2013-11-21 18:11:00,29.5,23.1,30.32,North,0,13.2,27.7,77,0.00,,,0.20,wxRedirect v1.1,2013-11-22 00:11:00,
2013-11-21 18:17:00,29.3,22.9,30.32,NNW,337,15.4,27.7,77,0.00,,,0.20,wxRedirect v1.1,2013-11-22 00:17:00,
2013-11-21 18:22:00,29.3,22.9,30.32,North,0,12.1,21.7,77,0.00,,,0.20,wxRedirect v1.1,2013-11-22 00:22:00,
2013-11-21 18:27:00,29.1,22.8,30.32,NNW,337,11.2,21.7,77,0.00,,,0.20,wxRedirect v1.1,2013-11-22 00:27:00,
2013-11-21 18:33:00,29.1,23.1,30.33,NNW,337,15.9,26.6,78,0.00,,,0.20,wxRedirect v1.1,2013-11-22 00:33:00,
2013-11-21 18:38:00,28.9,22.6,30.33,North,0,14.8,26.6,77,0.00,,,0.20,wxRedirect v1.1,2013-11-22 00:38:00,
2013-11-21 18:43:00,28.8,22.4,30.33,NNW,337,10.7,24.2,77,0.00,,,0.20,wxRedirect v1.1,2013-11-22 00:43:00,
2013-11-21 18:49:00,28.6,22.2,30.34,NNW,337,15.0,23.5,77,0.00,,,0.20,wxRedirect v1.1,2013-11-22 00:49:00,
2013-11-21 18:54:00,28.6,22.2,30.34,North,0,18.6,27.3,77,0.00,,,0.20,wxRedirect v1.1,2013-11-22 00:54:00,
2013-11-21 18:59:00,28.6,22.2,30.35,North,0,21.0,27.3,77,0.00,,,0.20,wxRedirect v1.1,2013-11-22 00:59:00,
2013-11-21 19:05:00,28.2,21.9,30.35,NNW,337,15.0,22.4,77,0.00,,,0.20,wxRedirect v1.1,2013-11-22 01:05:00,
2013-11-21 19:10:00,28.2,21.9,30.35,NNW,337,13.6,19.2,77,0.00,,,0.20,wxRedirect v1.1,2013-11-22 01:10:00,
2013-11-21 19:15:00,28.2,21.9,30.36,NNW,337,19.7,21.0,77,0.00,,,0.20,wxRedirect v1.1,2013-11-22 01:15:00,
2013-11-21 19:21:00,28.2,21.6,30.36,NNW,337,15.0,24.6,76,0.00,,,0.20,wxRedirect v1.1,2013-11-22 01:21:00,
2013-11-21 19:26:00,28.2,21.6,30.35,North,0,25.7,26.8,76,0.00,,,0.20,wxRedirect v1.1,2013-11-22 01:26:00,
2013-11-21 19:31:00,28.2,21.6,30.36,NNE,22,18.3,25.7,76,0.00,,,0.20,wxRedirect v1.1,2013-11-22 01:31:00,
2013-11-21 19:37:00,28.2,21.3,30.36,North,0,18.1,26.4,75,0.00,,,0.20,wxRedirect v1.1,2013-11-22 01:37:00,
2013-11-21 19:42:00,28.0,21.1,30.36,NNE,22,9.8,26.4,75,0.00,,,0.20,wxRedirect v1.1,2013-11-22 01:42:00,
2013-11-21 19:47:00,28.0,21.1,30.36,NNE,22,18.3,18.3,75,0.00,,,0.20,wxRedirect v1.1,2013-11-22 01:47:00,
2013-11-21 19:53:00,28.0,21.1,30.37,North,0,7.4,18.6,75,0.00,,,0.20,wxRedirect v1.1,2013-11-22 01:53:00,
2013-11-21 19:58:00,28.0,21.1,30.37,NNE,22,19.7,21.9,75,0.00,,,0.20,wxRedirect v1.1,2013-11-22 01:58:00,
2013-11-21 20:03:00,27.7,20.8,30.38,NNW,337,17.7,21.9,75,0.00,,,0.20,wxRedirect v1.1,2013-11-22 02:03:00,
2013-11-21 20:08:00,27.7,20.8,30.38,NNW,337,11.2,21.0,75,0.00,,,0.20,wxRedirect v1.1,2013-11-22 02:08:00,
2013-11-21 20:09:00,27.7,20.8,30.38,North,0,12.8,21.0,75,0.00,,,0.20,wxRedirect v1.1,2013-11-22 02:09:00,
2013-11-21 20:10:00,27.7,20.8,30.38,North,0,19.7,21.0,75,0.00,,,0.20,wxRedirect v1.1,2013-11-22 02:10:00,
2013-11-21 20:11:00,27.7,20.8,30.38,NNW,337,10.7,21.0,75,0.00,,,0.20,wxRedirect v1.1,2013-11-22 02:11:00,
2013-11-21 20:16:00,27.7,20.4,30.39,North,0,8.7,26.4,74,0.00,,,0.20,wxRedirect v1.1,2013-11-22 02:16:00,
2013-11-21 20:17:00,27.7,20.8,30.39,North,0,13.0,26.4,75,0.00,,,0.20,wxRedirect v1.1,2013-11-22 02:17:00,
2013-11-21 20:22:00,27.7,20.8,30.39,North,0,12.1,26.4,75,0.00,,,0.20,wxRedirect v1.1,2013-11-22 02:22:00,
2013-11-21 20:27:00,27.7,20.8,30.39,North,0,27.5,27.5,75,0.00,,,0.20,wxRedirect v1.1,2013-11-22 02:27:00,
2013-11-21 20:33:00,27.7,20.8,30.40,NNW,337,22.8,30.9,75,0.00,,,0.20,wxRedirect v1.1,2013-11-22 02:33:00,
2013-11-21 20:38:00,27.7,20.8,30.40,NNW,337,8.7,30.9,75,0.00,,,0.20,wxRedirect v1.1,2013-11-22 02:38:00,
2013-11-21 20:43:00,27.5,20.3,30.40,NNW,337,10.1,23.7,74,0.00,,,0.20,wxRedirect v1.1,2013-11-22 02:43:00,
2013-11-21 20:49:00,27.5,20.3,30.40,North,0,13.6,27.7,74,0.00,,,0.20,wxRedirect v1.1,2013-11-22 02:49:00,
2013-11-21 20:54:00,27.3,20.1,30.40,NNW,337,6.7,28.9,74,0.00,,,0.20,wxRedirect v1.1,2013-11-22 02:54:00,
2013-11-21 20:59:00,27.3,20.1,30.40,North,0,13.0,28.9,74,0.00,,,0.20,wxRedirect v1.1,2013-11-22 02:59:00,
2013-11-21 21:05:00,27.1,19.9,30.40,NNW,337,13.9,27.3,74,0.00,,,0.20,wxRedirect v1.1,2013-11-22 03:05:00,
2013-11-21 21:10:00,27.1,19.9,30.40,North,0,17.2,29.3,74,0.00,,,0.20,wxRedirect v1.1,2013-11-22 03:10:00,
2013-11-21 21:15:00,27.1,19.9,30.40,North,0,4.5,29.3,74,0.00,,,0.20,wxRedirect v1.1,2013-11-22 03:15:00,
2013-11-21 21:21:00,27.1,19.9,30.42,North,0,22.6,25.7,74,0.00,,,0.20,wxRedirect v1.1,2013-11-22 03:21:00,
2013-11-21 21:26:00,27.1,19.9,30.42,North,0,11.6,22.6,74,0.00,,,0.20,wxRedirect v1.1,2013-11-22 03:26:00,
2013-11-21 21:31:00,27.1,19.9,30.42,NNW,337,19.5,24.2,74,0.00,,,0.20,wxRedirect v1.1,2013-11-22 03:31:00,
2013-11-21 21:37:00,27.1,19.9,30.41,North,0,16.3,24.2,74,0.00,,,0.20,wxRedirect v1.1,2013-11-22 03:37:00,
2013-11-21 21:42:00,27.1,19.9,30.42,North,0,17.2,17.9,74,0.00,,,0.20,wxRedirect v1.1,2013-11-22 03:42:00,
2013-11-21 21:47:00,27.1,19.9,30.42,North,0,4.5,19.2,74,0.00,,,0.20,wxRedirect v1.1,2013-11-22 03:47:00,
2013-11-21 21:53:00,27.3,20.1,30.43,NNW,337,22.6,22.6,74,0.00,,,0.20,wxRedirect v1.1,2013-11-22 03:53:00,
2013-11-21 21:58:00,27.3,19.8,30.44,North,0,23.7,23.7,73,0.00,,,0.20,wxRedirect v1.1,2013-11-22 03:58:00,
2013-11-21 22:03:00,27.3,19.8,30.44,North,0,12.8,23.7,73,0.00,,,0.20,wxRedirect v1.1,2013-11-22 04:03:00,
2013-11-21 22:09:00,27.3,19.8,30.44,NW,315,11.2,19.9,73,0.00,,,0.20,wxRedirect v1.1,2013-11-22 04:09:00,
2013-11-21 22:14:00,27.3,19.8,30.44,NNW,337,11.6,18.6,73,0.00,,,0.20,wxRedirect v1.1,2013-11-22 04:14:00,
2013-11-21 22:19:00,27.1,19.6,30.44,NE,45,14.8,18.6,73,0.00,,,0.20,wxRedirect v1.1,2013-11-22 04:19:00,
2013-11-21 22:25:00,27.1,19.6,30.44,NNW,337,15.4,19.2,73,0.00,,,0.20,wxRedirect v1.1,2013-11-22 04:25:00,
2013-11-21 22:30:00,27.1,19.6,30.45,North,0,7.8,25.7,73,0.00,,,0.20,wxRedirect v1.1,2013-11-22 04:30:00,
2013-11-21 22:35:00,27.1,19.6,30.46,NNE,22,17.2,25.7,73,0.00,,,0.20,wxRedirect v1.1,2013-11-22 04:35:00,
2013-11-21 22:41:00,27.1,19.6,30.46,NNW,337,12.3,21.7,73,0.00,,,0.20,wxRedirect v1.1,2013-11-22 04:41:00,
2013-11-21 22:46:00,27.0,19.4,30.45,North,0,21.5,21.7,73,0.00,,,0.20,wxRedirect v1.1,2013-11-22 04:46:00,
2013-11-21 22:51:00,27.0,19.4,30.44,North,0,11.2,21.5,73,0.00,,,0.20,wxRedirect v1.1,2013-11-22 04:51:00,
2013-11-21 22:57:00,27.0,19.4,30.44,NNE,22,15.0,23.9,73,0.00,,,0.20,wxRedirect v1.1,2013-11-22 04:57:00,
2013-11-21 23:01:00,27.0,19.4,30.43,North,0,17.0,23.9,73,0.00,,,0.20,wxRedirect v1.1,2013-11-22 05:01:00,
2013-11-21 23:02:00,27.0,19.4,30.43,NNW,337,12.8,23.9,73,0.00,,,0.20,wxRedirect v1.1,2013-11-22 05:02:00,
2013-11-21 23:04:00,27.0,19.4,30.44,NNW,337,13.0,23.9,73,0.00,,,0.20,wxRedirect v1.1,2013-11-22 05:04:00,
2013-11-21 23:08:00,26.8,19.2,30.45,NNW,337,5.6,21.7,73,0.00,,,0.20,wxRedirect v1.1,2013-11-22 05:08:00,
2013-11-21 23:10:00,26.8,19.2,30.45,NNW,337,8.5,21.7,73,0.00,,,0.20,wxRedirect v1.1,2013-11-22 05:10:00,
2013-11-21 23:15:00,26.8,19.2,30.45,NNW,337,18.3,21.7,73,0.00,,,0.20,wxRedirect v1.1,2013-11-22 05:15:00,
2013-11-21 23:21:00,26.8,19.2,30.45,North,0,5.8,29.1,73,0.00,,,0.20,wxRedirect v1.1,2013-11-22 05:21:00,
2013-11-21 23:26:00,26.6,19.1,30.45,NNW,337,15.0,30.4,73,0.00,,,0.20,wxRedirect v1.1,2013-11-22 05:26:00,
2013-11-21 23:31:00,26.4,18.9,30.46,NNW,337,17.4,30.4,73,0.00,,,0.20,wxRedirect v1.1,2013-11-22 05:31:00,
2013-11-21 23:37:00,26.4,18.9,30.47,North,0,6.9,22.6,73,0.00,,,0.20,wxRedirect v1.1,2013-11-22 05:37:00,
2013-11-21 23:42:00,26.4,18.9,30.48,NNW,337,10.3,17.2,73,0.00,,,0.20,wxRedirect v1.1,2013-11-22 05:42:00,
2013-11-21 23:47:00,26.4,18.9,30.48,North,0,4.3,20.8,73,0.00,,,0.20,wxRedirect v1.1,2013-11-22 05:47:00,
2013-11-21 23:53:00,26.4,18.6,30.48,NNW,337,12.1,20.8,72,0.00,,,0.20,wxRedirect v1.1,2013-11-22 05:53:00,
2013-11-21 23:58:00,26.4,18.6,30.48,NNW,337,18.3,18.3,72,0.00,,,0.20,wxRedirect v1.1,2013-11-22 05:58:00,